| time (UTC) | temp F | wind direction | speed knots | gust knots | rain 1hr in | rain 24hr in | rain mn in | humidity % | barometer mb |
| 20260510211605 | 68 | 219 | 5.2 | 10.4 | 0.00 | 0.00 | 0.00 | 20 | 1023.4 |
| 20260510211105 | 68 | 265 | 1.7 | 6.1 | 0.00 | 0.00 | 0.00 | 19 | 1023.4 |
| 20260510210605 | 68 | 193 | 5.2 | 10.4 | 0.00 | 0.00 | 0.00 | 23 | 1023.5 |
| 20260510204105 | 67 | 223 | 3.5 | 7.8 | 0.00 | 0.00 | 0.00 | 23 | 1023.7 |
| 20260510203605 | 67 | 337 | 0.9 | 2.6 | 0.00 | 0.00 | 0.00 | 25 | 1023.7 |
| 20260510203105 | 66 | 265 | 4.3 | 11.3 | 0.00 | 0.00 | 0.00 | 24 | 1023.7 |
| 20260510201605 | 67 | 10 | 2.6 | 7.0 | 0.00 | 0.00 | 0.00 | 24 | 1023.8 |
| 20260510201105 | 67 | 14 | 4.3 | 10.4 | 0.00 | 0.00 | 0.00 | 22 | 1023.9 |
| 20260510200605 | 67 | 8 | 2.6 | 6.1 | 0.00 | 0.00 | 0.00 | 24 | 1023.9 |
| 20260510200106 | 66 | 13 | 4.3 | 7.8 | 0.00 | 0.00 | 0.00 | 24 | 1023.9 |
| 20260510194104 | 67 | 299 | 4.3 | 6.1 | 0.00 | 0.00 | 0.00 | 23 | 1024.2 |
| 20260510193105 | 66 | 238 | 3.5 | 11.3 | 0.00 | 0.00 | 0.00 | 23 | 1024.3 |
| 20260510191605 | 65 | 272 | 4.3 | 8.7 | 0.00 | 0.00 | 0.00 | 24 | 1024.4 |
| 20260510191105 | 64 | 255 | 2.6 | 7.8 | 0.00 | 0.00 | 0.00 | 24 | 1024.4 |
| 20260510190605 | 64 | 216 | 2.6 | 8.7 | 0.00 | 0.00 | 0.00 | 22 | 1024.5 |
| 20260510190105 | 64 | 267 | 5.2 | 11.3 | 0.00 | 0.00 | 0.00 | 23 | 1024.6 |
| 20260510184605 | 65 | 192 | 4.3 | 10.4 | 0.00 | 0.00 | 0.00 | 22 | 1024.7 |
| 20260510184105 | 65 | 264 | 2.6 | 10.4 | 0.00 | 0.00 | 0.00 | 23 | 1024.8 |
| 20260510183605 | 65 | 13 | 4.3 | 7.8 | 0.00 | 0.00 | 0.00 | 24 | 1024.9 |
| 20260510183105 | 64 | 13 | 5.2 | 10.4 | 0.00 | 0.00 | 0.00 | 24 | 1025.0 |
| 20260510181605 | 64 | 12 | 4.3 | 10.4 | 0.00 | 0.00 | 0.00 | 22 | 1025.0 |
| 20260510181104 | 64 | 14 | 2.6 | 6.1 | 0.00 | 0.00 | 0.00 | 22 | 1025.1 |
| 20260510180605 | 64 | 15 | 2.6 | 8.7 | 0.00 | 0.00 | 0.00 | 26 | 1025.2 |
| 20260510174605 | 63 | 16 | 3.5 | 6.1 | 0.00 | 0.00 | 0.00 | 23 | 1025.1 |
| 20260510174105 | 63 | 13 | 2.6 | 6.1 | 0.00 | 0.00 | 0.00 | 23 | 1025.2 |
| 20260510173604 | 62 | 18 | 2.6 | 8.7 | 0.00 | 0.00 | 0.00 | 22 | 1025.1 |
| 20260510173105 | 63 | 16 | 2.6 | 6.1 | 0.00 | 0.00 | 0.00 | 21 | 1025.1 |
| 20260510171605 | 62 | 15 | 2.6 | 5.2 | 0.00 | 0.00 | 0.00 | 20 | 1025.1 |
| 20260510171105 | 62 | 13 | 3.5 | 7.8 | 0.00 | 0.00 | 0.00 | 22 | 1025.1 |
| 20260510170605 | 62 | 16 | 3.5 | 7.8 | 0.00 | 0.00 | 0.00 | 24 | 1025.1 |
| 20260510170104 | 61 | 13 | 4.3 | 5.2 | 0.00 | 0.00 | 0.00 | 23 | 1025.1 |
| 20260510164605 | 60 | 13 | 3.5 | 7.8 | 0.00 | 0.00 | 0.00 | 24 | 1025.1 |
| 20260510164105 | 59 | 13 | 2.6 | 5.2 | 0.00 | 0.00 | 0.00 | 25 | 1025.1 |
| 20260510163605 | 59 | 13 | 1.7 | 6.1 | 0.00 | 0.00 | 0.00 | 27 | 1025.1 |
| 20260510161605 | 59 | 11 | 3.5 | 7.8 | 0.00 | 0.00 | 0.00 | 25 | 1025.1 |
| 20260510161105 | 58 | 11 | 3.5 | 10.4 | 0.00 | 0.00 | 0.00 | 26 | 1025.0 |
| 20260510160604 | 58 | 11 | 3.5 | 6.1 | 0.00 | 0.00 | 0.00 | 26 | 1025.1 |
| 20260510160105 | 57 | 12 | 2.6 | 8.7 | 0.00 | 0.00 | 0.00 | 27 | 1025.1 |
| 20260510154605 | 57 | 11 | 3.5 | 6.1 | 0.00 | 0.00 | 0.00 | 30 | 1025.2 |
| 20260510154104 | 56 | 9 | 2.6 | 4.3 | 0.00 | 0.00 | 0.00 | 30 | 1025.3 |
| 20260510153105 | 55 | 11 | 2.6 | 7.0 | 0.00 | 0.00 | 0.00 | 33 | 1025.4 |
| 20260510151605 | 53 | 11 | 2.6 | 5.2 | 0.00 | 0.00 | 0.00 | 37 | 1025.4 |
| 20260510151105 | 53 | 10 | 4.3 | 5.2 | 0.00 | 0.00 | 0.00 | 37 | 1025.4 |
| 20260510150605 | 52 | 11 | 3.5 | 6.1 | 0.00 | 0.00 | 0.00 | 39 | 1025.5 |
| 20260510150105 | 52 | 11 | 2.6 | 7.8 | 0.00 | 0.00 | 0.00 | 40 | 1025.5 |
| 20260510144605 | 50 | 11 | 2.6 | 5.2 | 0.00 | 0.00 | 0.00 | 41 | 1025.5 |
| 20260510144104 | 49 | 10 | 4.3 | 7.8 | 0.00 | 0.00 | 0.00 | 42 | 1025.6 |
| 20260510143105 | 48 | 11 | 4.3 | 10.4 | 0.00 | 0.00 | 0.00 | 45 | 1025.5 |
| 20260510141605 | 47 | 10 | 5.2 | 10.4 | 0.00 | 0.00 | 0.00 | 46 | 1025.6 |
| 20260510141104 | 45 | 10 | 7.0 | 11.3 | 0.00 | 0.00 | 0.00 | 46 | 1025.7 |
| 20260510140605 | 44 | 10 | 7.8 | 12.2 | 0.00 | 0.00 | 0.00 | 48 | 1025.8 |
| 20260510140104 | 44 | 10 | 8.7 | 14.8 | 0.00 | 0.00 | 0.00 | 50 | 1025.7 |
| 20260510134605 | 42 | 10 | 6.1 | 12.2 | 0.00 | 0.00 | 0.00 | 51 | 1025.9 |
| 20260510134104 | 42 | 10 | 9.6 | 13.9 | 0.00 | 0.00 | 0.00 | 52 | 1025.8 |
| 20260510133604 | 41 | 10 | 8.7 | 12.2 | 0.00 | 0.00 | 0.00 | 52 | 1025.8 |
| 20260510133105 | 41 | 9 | 7.0 | 13.9 | 0.00 | 0.00 | 0.00 | 52 | 1025.8 |
| 20260510131604 | 41 | 9 | 7.8 | 13.0 | 0.00 | 0.00 | 0.00 | 52 | 1025.8 |
| 20260510130104 | 39 | 10 | 7.0 | 13.0 | 0.00 | 0.00 | 0.00 | 54 | 1025.6 |
| 20260510124104 | 38 | 10 | 9.6 | 13.9 | 0.00 | 0.00 | 0.00 | 56 | 1025.3 |
| 20260510123605 | 38 | 10 | 7.8 | 11.3 | 0.00 | 0.00 | 0.00 | 56 | 1025.4 |
| 20260510123105 | 38 | 10 | 6.1 | 12.2 | 0.00 | 0.00 | 0.00 | 56 | 1025.3 |
| 20260510121604 | 38 | 9 | 7.8 | 13.0 | 0.00 | 0.00 | 0.00 | 57 | 1025.2 |
| 20260510121104 | 38 | 10 | 8.7 | 14.8 | 0.00 | 0.00 | 0.00 | 57 | 1025.2 |
| 20260510120605 | 38 | 10 | 7.0 | 10.4 | 0.00 | 0.00 | 0.00 | 57 | 1025.2 |
| 20260510120105 | 38 | 10 | 8.7 | 17.4 | 0.00 | 0.00 | 0.00 | 57 | 1025.2 |
| 20260510114604 | 38 | 10 | 10.4 | 14.8 | 0.00 | 0.00 | 0.00 | 56 | 1025.1 |
| 20260510114104 | 38 | 10 | 6.1 | 13.0 | 0.00 | 0.00 | 0.00 | 57 | 1025.1 |
| 20260510113604 | 38 | 9 | 7.8 | 13.0 | 0.00 | 0.00 | 0.00 | 57 | 1025.0 |
| 20260510113105 | 38 | 10 | 7.8 | 13.9 | 0.00 | 0.00 | 0.00 | 57 | 1025.1 |
| 20260510111604 | 39 | 10 | 7.0 | 12.2 | 0.00 | 0.00 | 0.00 | 56 | 1025.0 |
| 20260510111104 | 39 | 10 | 8.7 | 12.2 | 0.00 | 0.00 | 0.00 | 55 | 1025.0 |
| 20260510110104 | 39 | 9 | 7.8 | 13.9 | 0.00 | 0.00 | 0.00 | 55 | 1025.0 |
| 20260510104605 | 39 | 10 | 9.6 | 15.6 | 0.00 | 0.00 | 0.00 | 54 | 1024.8 |
| 20260510104104 | 39 | 10 | 8.7 | 13.9 | 0.00 | 0.00 | 0.00 | 55 | 1024.8 |
| 20260510103604 | 39 | 10 | 9.6 | 14.8 | 0.00 | 0.00 | 0.00 | 55 | 1024.7 |
| 20260510101104 | 39 | 10 | 8.7 | 12.2 | 0.00 | 0.00 | 0.00 | 54 | 1024.6 |
| 20260510100604 | 39 | 10 | 8.7 | 14.8 | 0.00 | 0.00 | 0.00 | 54 | 1024.5 |
| 20260510100104 | 39 | 10 | 6.1 | 13.0 | 0.00 | 0.00 | 0.00 | 54 | 1024.5 |
| 20260510094605 | 40 | 10 | 7.8 | 11.3 | 0.00 | 0.00 | 0.00 | 53 | 1024.5 |
| 20260510094104 | 39 | 9 | 7.0 | 12.2 | 0.00 | 0.00 | 0.00 | 54 | 1024.4 |
| 20260510093105 | 39 | 10 | 7.8 | 14.8 | 0.00 | 0.00 | 0.00 | 55 | 1024.5 |
| 20260510091604 | 37 | 11 | 6.1 | 12.2 | 0.00 | 0.00 | 0.00 | 59 | 1024.2 |
| 20260510091104 | 37 | 11 | 7.8 | 13.0 | 0.00 | 0.00 | 0.00 | 60 | 1024.1 |
| 20260510090604 | 37 | 11 | 2.6 | 13.0 | 0.00 | 0.00 | 0.00 | 63 | 1024.0 |
| 20260510090105 | 36 | 10 | 6.1 | 10.4 | 0.00 | 0.00 | 0.00 | 60 | 1023.9 |
| 20260510084604 | 37 | 10 | 2.6 | 5.2 | 0.00 | 0.00 | 0.00 | 60 | 1023.7 |
| 20260510083604 | 38 | 11 | 4.3 | 10.4 | 0.00 | 0.00 | 0.00 | 56 | 1023.7 |
| 20260510083104 | 38 | 10 | 6.1 | 11.3 | 0.00 | 0.00 | 0.00 | 55 | 1023.6 |
| 20260510081604 | 39 | 11 | 7.0 | 13.9 | 0.00 | 0.00 | 0.00 | 53 | 1023.6 |
| 20260510080604 | 39 | 10 | 4.3 | 10.4 | 0.00 | 0.00 | 0.00 | 54 | 1023.6 |
| 20260510080104 | 39 | 9 | 2.6 | 7.8 | 0.00 | 0.00 | 0.00 | 55 | 1023.5 |
| 20260510074604 | 40 | 10 | 6.1 | 11.3 | 0.00 | 0.00 | 0.00 | 52 | 1023.5 |
| 20260510073605 | 39 | 10 | 5.2 | 8.7 | 0.00 | 0.00 | 0.00 | 54 | 1023.5 |
| 20260510073104 | 39 | 10 | 4.3 | 10.4 | 0.00 | 0.00 | 0.00 | 55 | 1023.5 |
| 20260510071604 | 39 | 10 | 1.7 | 8.7 | 0.00 | 0.00 | 0.00 | 58 | 1023.5 |
| 20260510071104 | 38 | 10 | 2.6 | 5.2 | 0.00 | 0.00 | 0.00 | 54 | 1023.4 |
| 20260510070604 | 39 | 11 | 1.7 | 5.2 | 0.00 | 0.00 | 0.00 | 55 | 1023.4 |
| 20260510064605 | 38 | 11 | 0.0 | 1.7 | 0.00 | 0.00 | 0.00 | 56 | 1023.2 |
| 20260510064105 | 38 | 11 | 0.9 | 1.7 | 0.00 | 0.00 | 0.00 | 55 | 1023.2 |
| 20260510063605 | 38 | 13 | 0.9 | 2.6 | 0.00 | 0.00 | 0.00 | 57 | 1023.1 |
| 20260510063105 | 38 | 13 | 0.9 | 2.6 | 0.00 | 0.00 | 0.00 | 57 | 1023.0 |
| 20260510061605 | 38 | 13 | 0.9 | 1.7 | 0.00 | 0.00 | 0.00 | 57 | 1022.8 |
| 20260510061107 | 38 | 13 | 0.9 | 2.6 | 0.00 | 0.00 | 0.00 | 57 | 1022.7 |
| 20260510060604 | 38 | 13 | 1.7 | 2.6 | 0.00 | 0.00 | 0.00 | 57 | 1022.7 |
| 20260510060104 | 38 | 13 | 1.7 | 2.6 | 0.00 | 0.00 | 0.00 | 57 | 1022.7 |
| 20260510054604 | 39 | 13 | 1.7 | 2.6 | 0.00 | 0.00 | 0.00 | 55 | 1022.6 |
| 20260510054105 | 39 | 12 | 0.0 | 0.9 | 0.00 | 0.00 | 0.00 | 54 | 1022.5 |
| 20260510053605 | 39 | 12 | 0.9 | 1.7 | 0.00 | 0.00 | 0.00 | 52 | 1022.3 |
| 20260510051604 | 40 | 9 | 0.9 | 1.7 | 0.00 | 0.00 | 0.00 | 54 | 1022.2 |
| 20260510051104 | 40 | 9 | 0.0 | 1.7 | 0.00 | 0.00 | 0.00 | 50 | 1022.3 |
| 20260510050604 | 40 | 9 | 0.9 | 1.7 | 0.00 | 0.00 | 0.00 | 49 | 1022.2 |
| 20260510050104 | 41 | 9 | 0.9 | 4.3 | 0.00 | 0.00 | 0.00 | 50 | 1022.2 |
| 20260510044604 | 42 | 9 | 0.0 | 1.7 | 0.00 | 0.00 | 0.00 | 44 | 1022.0 |
| 20260510044105 | 43 | 9 | 0.9 | 2.6 | 0.00 | 0.00 | 0.00 | 48 | 1022.0 |
| 20260510043604 | 43 | 8 | 1.7 | 2.6 | 0.00 | 0.00 | 0.00 | 43 | 1022.0 |
| 20260510043104 | 43 | 9 | 1.7 | 4.3 | 0.00 | 0.00 | 0.00 | 44 | 1021.9 |
| 20260510041104 | 43 | 9 | 2.6 | 2.6 | 0.00 | 0.00 | 0.00 | 42 | 1021.8 |
| 20260510040604 | 44 | 9 | 1.7 | 2.6 | 0.00 | 0.00 | 0.00 | 42 | 1021.8 |
| 20260510040104 | 44 | 9 | 1.7 | 5.2 | 0.00 | 0.00 | 0.00 | 41 | 1021.8 |
| 20260510034605 | 44 | 9 | 0.9 | 2.6 | 0.00 | 0.00 | 0.00 | 42 | 1021.5 |
| 20260510034104 | 44 | 9 | 0.9 | 2.6 | 0.00 | 0.00 | 0.00 | 42 | 1021.3 |
| 20260510033604 | 44 | 9 | 1.7 | 2.6 | 0.00 | 0.00 | 0.00 | 40 | 1021.2 |
| 20260510031604 | 45 | 9 | 2.6 | 2.6 | 0.00 | 0.00 | 0.00 | 39 | 1020.7 |
| 20260510031104 | 46 | 9 | 2.6 | 4.3 | 0.00 | 0.00 | 0.00 | 39 | 1020.6 |
| 20260510030604 | 46 | 9 | 2.6 | 2.6 | 0.00 | 0.00 | 0.00 | 40 | 1020.5 |
| 20260510030104 | 47 | 9 | 2.6 | 4.3 | 0.00 | 0.00 | 0.00 | 40 | 1020.3 |
| 20260510024604 | 48 | 9 | 2.6 | 2.6 | 0.00 | 0.00 | 0.00 | 38 | 1020.1 |
| 20260510024104 | 49 | 9 | 2.6 | 4.3 | 0.00 | 0.00 | 0.00 | 36 | 1020.1 |
| 20260510023604 | 50 | 15 | 0.9 | 1.7 | 0.00 | 0.00 | 0.00 | 34 | 1020.1 |
| 20260510023104 | 51 | 15 | 1.7 | 2.6 | 0.00 | 0.00 | 0.00 | 32 | 1020.0 |
| 20260510021104 | 53 | 15 | 0.0 | 0.0 | 0.00 | 0.00 | 0.00 | 29 | 1019.8 |
| 20260510014604 | 54 | 14 | 0.9 | 1.7 | 0.00 | 0.00 | 0.00 | 25 | 1019.5 |
| 20260510014104 | 55 | 15 | 1.7 | 5.2 | 0.00 | 0.00 | 0.00 | 24 | 1019.5 |
| 20260510013104 | 55 | 14 | 0.9 | 8.7 | 0.00 | 0.00 | 0.00 | 23 | 1019.5 |
| 20260510011604 | 56 | 14 | 2.6 | 6.1 | 0.00 | 0.00 | 0.00 | 22 | 1019.5 |
| 20260510010104 | 57 | 14 | 3.5 | 8.7 | 0.00 | 0.00 | 0.00 | 23 | 1019.5 |
| 20260510004604 | 58 | 257 | 1.7 | 4.3 | 0.00 | 0.00 | 0.00 | 22 | 1019.5 |
| 20260510004104 | 58 | 269 | 4.3 | 8.7 | 0.00 | 0.00 | 0.00 | 22 | 1019.4 |
| 20260510001604 | 59 | 256 | 5.2 | 10.4 | 0.00 | 0.00 | 0.00 | 20 | 1019.3 |
| 20260510001104 | 59 | 269 | 4.3 | 10.4 | 0.00 | 0.00 | 0.00 | 20 | 1019.4 |
| 20260510000604 | 60 | 259 | 3.5 | 10.4 | 0.00 | 0.00 | 0.00 | 21 | 1019.3 |
| 20260510000104 | 60 | 63 | 2.6 | 10.4 | 0.00 | 0.00 | 0.00 | 21 | 1019.2 |
| 20260509234604 | 60 | 9 | 1.7 | 10.4 | 0.00 | 0.00 | 0.00 | 20 | 1019.3 |
| 20260509234104 | 60 | 14 | 7.0 | 13.0 | 0.00 | 0.00 | 0.00 | 20 | 1019.2 |
| 20260509233604 | 60 | 14 | 5.2 | 13.0 | 0.00 | 0.00 | 0.00 | 21 | 1019.1 |
| 20260509233104 | 60 | 13 | 3.5 | 12.2 | 0.00 | 0.00 | 0.00 | 19 | 1019.0 |
| 20260509231104 | 60 | 12 | 5.2 | 10.4 | 0.00 | 0.00 | 0.00 | 20 | 1019.0 |
| 20260509230604 | 61 | 14 | 5.2 | 10.4 | 0.00 | 0.00 | 0.00 | 19 | 1019.1 |
| 20260509230105 | 61 | 14 | 4.3 | 17.4 | 0.00 | 0.00 | 0.00 | 19 | 1019.0 |
| 20260509224604 | 61 | 15 | 7.0 | 13.9 | 0.00 | 0.00 | 0.00 | 18 | 1018.7 |
| 20260509224104 | 62 | 14 | 5.2 | 10.4 | 0.00 | 0.00 | 0.00 | 19 | 1018.7 |
| 20260509223104 | 61 | 12 | 6.1 | 15.6 | 0.00 | 0.00 | 0.00 | 19 | 1018.7 |
| 20260509221605 | 62 | 11 | 3.5 | 8.7 | 0.00 | 0.00 | 0.00 | 17 | 1018.8 |
| 20260509221106 | 62 | 14 | 2.6 | 12.2 | 0.00 | 0.00 | 0.00 | 18 | 1018.8 |
| 20260509220605 | 63 | 14 | 5.2 | 13.9 | 0.00 | 0.00 | 0.00 | 18 | 1018.8 |
| 20260509220105 | 63 | 9 | 4.3 | 11.3 | 0.00 | 0.00 | 0.00 | 18 | 1018.8 |
| 20260509214605 | 63 | 11 | 4.3 | 13.0 | 0.00 | 0.00 | 0.00 | 18 | 1018.9 |
| 20260509214104 | 62 | 15 | 6.1 | 10.4 | 0.00 | 0.00 | 0.00 | 18 | 1018.9 |
| 20260509213605 | 63 | 13 | 6.1 | 13.0 | 0.00 | 0.00 | 0.00 | 18 | 1018.7 |
| 20260509213105 | 63 | 10 | 2.6 | 14.8 | 0.00 | 0.00 | 0.00 | 17 | 1018.9 |